| time (UTC) | temp F | wind direction | speed MPH | gust MPH | rain 1hr in | rain 24hr in | rain mn in | humidity % | barometer mb |
| 20260507073341 | 49 | 221 | 1.0 | 3.0 | 0.00 | 0.00 | 0.00 | 71 | 1018.4 |
| 20260507072840 | 49 | 215 | 1.0 | 4.0 | 0.00 | 0.00 | 0.00 | 71 | 1018.4 |
| 20260507072341 | 49 | 252 | 1.0 | 4.0 | 0.00 | 0.00 | 0.00 | 71 | 1018.5 |
| 20260507071842 | 49 | 260 | 1.0 | 4.0 | 0.00 | 0.00 | 0.00 | 70 | 1018.5 |
| 20260507070340 | 49 | 242 | 1.0 | 3.0 | 0.00 | 0.00 | 0.00 | 70 | 1018.6 |
| 20260507065840 | 50 | 243 | 1.0 | 3.0 | 0.00 | 0.00 | 0.00 | 70 | 1018.7 |
| 20260507065340 | 50 | 243 | 1.0 | 5.0 | 0.00 | 0.00 | 0.00 | 69 | 1018.7 |
| 20260507064840 | 50 | 247 | 1.0 | 5.0 | 0.00 | 0.00 | 0.00 | 69 | 1018.8 |
| 20260507064339 | 50 | 239 | 1.0 | 4.0 | 0.00 | 0.00 | 0.00 | 69 | 1018.8 |
| 20260507063838 | 50 | 249 | 1.0 | 3.0 | 0.00 | 0.00 | 0.00 | 69 | 1018.9 |
| 20260507063339 | 50 | 246 | 1.0 | 3.0 | 0.00 | 0.00 | 0.00 | 69 | 1018.9 |
| 20260507062840 | 50 | 241 | 1.0 | 6.0 | 0.00 | 0.00 | 0.00 | 69 | 1018.9 |
| 20260507062337 | 51 | 239 | 1.0 | 6.0 | 0.00 | 0.00 | 0.00 | 68 | 1018.9 |
| 20260507061330 | 51 | 242 | 1.0 | 4.0 | 0.00 | 0.00 | 0.00 | 68 | 1019.1 |
| 20260507060824 | 51 | 232 | 1.0 | 5.0 | 0.00 | 0.00 | 0.00 | 68 | 1019.1 |
| 20260507060319 | 51 | 250 | 1.0 | 5.0 | 0.00 | 0.00 | 0.00 | 68 | 1019.1 |
| 20260507055812 | 51 | 225 | 1.0 | 4.0 | 0.00 | 0.00 | 0.00 | 68 | 1019.2 |
| 20260507055307 | 51 | 222 | 1.0 | 7.0 | 0.00 | 0.00 | 0.00 | 67 | 1019.2 |
| 20260507054800 | 51 | 241 | 1.0 | 7.0 | 0.00 | 0.00 | 0.00 | 67 | 1019.2 |
| 20260507054254 | 51 | 253 | 1.0 | 5.0 | 0.00 | 0.00 | 0.00 | 66 | 1019.1 |
| 20260507053748 | 51 | 218 | 1.0 | 5.0 | 0.00 | 0.00 | 0.00 | 66 | 1019.1 |
| 20260507053241 | 51 | 227 | 0.0 | 4.0 | 0.00 | 0.00 | 0.00 | 66 | 1019.1 |
| 20260507052737 | 51 | 227 | 0.0 | 4.0 | 0.00 | 0.00 | 0.00 | 66 | 1019.1 |
| 20260507052230 | 50 | 225 | 1.0 | 3.0 | 0.00 | 0.00 | 0.00 | 66 | 1019.3 |
| 20260507051724 | 50 | 224 | 1.0 | 3.0 | 0.00 | 0.00 | 0.00 | 66 | 1019.1 |
| 20260507051218 | 50 | 218 | 1.0 | 3.0 | 0.00 | 0.00 | 0.00 | 66 | 1019.1 |
| 20260507050712 | 50 | 249 | 0.0 | 3.0 | 0.00 | 0.00 | 0.00 | 67 | 1019.1 |
| 20260507050206 | 50 | 250 | 1.0 | 3.0 | 0.00 | 0.00 | 0.00 | 67 | 1019.1 |
| 20260507045702 | 50 | 256 | 1.0 | 3.0 | 0.00 | 0.00 | 0.00 | 67 | 1019.2 |
| 20260507045154 | 50 | 255 | 1.0 | 3.0 | 0.00 | 0.00 | 0.00 | 67 | 1019.3 |
| 20260507044143 | 49 | 265 | 0.0 | 4.0 | 0.00 | 0.00 | 0.00 | 68 | 1019.1 |
| 20260507043637 | 49 | 265 | 0.0 | 6.0 | 0.00 | 0.00 | 0.00 | 68 | 1019.1 |
| 20260507043132 | 49 | 300 | 0.0 | 2.0 | 0.00 | 0.01 | 0.00 | 68 | 1019.2 |
| 20260507042625 | 49 | 304 | 0.0 | 1.0 | 0.00 | 0.01 | 0.00 | 68 | 1019.2 |
| 20260507042119 | 49 | 304 | 0.0 | 2.0 | 0.00 | 0.01 | 0.00 | 68 | 1019.3 |
| 20260507041612 | 48 | 304 | 0.0 | 2.0 | 0.00 | 0.01 | 0.00 | 68 | 1019.3 |
| 20260507041108 | 48 | 306 | 0.0 | 1.0 | 0.00 | 0.01 | 0.00 | 69 | 1019.3 |
| 20260507040602 | 48 | 306 | 0.0 | 1.0 | 0.00 | 0.01 | 0.00 | 69 | 1019.3 |
| 20260507040054 | 48 | 306 | 0.0 | 1.0 | 0.00 | 0.02 | 0.00 | 69 | 1019.3 |
| 20260507035553 | 48 | 306 | 0.0 | 0.0 | 0.00 | 0.02 | 0.00 | 68 | 1019.3 |
| 20260507035053 | 48 | 306 | 0.0 | 0.0 | 0.00 | 0.02 | 0.00 | 68 | 1019.2 |
| 20260507034553 | 48 | 306 | 0.0 | 0.0 | 0.00 | 0.02 | 0.00 | 69 | 1019.1 |
| 20260507034053 | 48 | 306 | 0.0 | 0.0 | 0.00 | 0.03 | 0.00 | 69 | 1019.2 |
| 20260507033553 | 48 | 306 | 0.0 | 0.0 | 0.00 | 0.03 | 0.00 | 70 | 1019.1 |
| 20260507033053 | 48 | 306 | 0.0 | 0.0 | 0.00 | 0.03 | 0.00 | 70 | 1019.2 |
| 20260507032554 | 49 | 306 | 0.0 | 0.0 | 0.00 | 0.03 | 0.00 | 71 | 1019.4 |
| 20260507032054 | 49 | 306 | 0.0 | 0.0 | 0.00 | 0.03 | 0.00 | 71 | 1019.3 |
| 20260507031551 | 49 | 306 | 0.0 | 0.0 | 0.00 | 0.03 | 0.00 | 70 | 1019.3 |
| 20260507031052 | 49 | 306 | 0.0 | 0.0 | 0.00 | 0.03 | 0.00 | 69 | 1019.4 |
| 20260507030552 | 49 | 306 | 0.0 | 0.0 | 0.00 | 0.03 | 0.00 | 68 | 1019.4 |
| 20260507030052 | 49 | 306 | 0.0 | 0.0 | 0.00 | 0.03 | 0.00 | 67 | 1019.3 |
| 20260507025551 | 50 | 306 | 0.0 | 0.0 | 0.00 | 0.03 | 0.00 | 66 | 1019.3 |
| 20260507024551 | 50 | 306 | 0.0 | 0.0 | 0.00 | 0.03 | 0.00 | 64 | 1019.1 |
| 20260507024050 | 50 | 306 | 0.0 | 0.0 | 0.00 | 0.03 | 0.00 | 63 | 1018.9 |
| 20260507023546 | 51 | 306 | 0.0 | 0.0 | 0.00 | 0.03 | 0.00 | 64 | 1018.9 |
| 20260507023046 | 51 | 306 | 0.0 | 0.0 | 0.00 | 0.03 | 0.00 | 63 | 1018.9 |
| 20260507022541 | 51 | 306 | 0.0 | 0.0 | 0.00 | 0.03 | 0.00 | 63 | 1018.9 |
| 20260507022036 | 52 | 306 | 0.0 | 0.0 | 0.00 | 0.03 | 0.00 | 64 | 1018.9 |
| 20260507021530 | 53 | 306 | 0.0 | 0.0 | 0.00 | 0.03 | 0.00 | 62 | 1018.9 |
| 20260507021023 | 53 | 306 | 0.0 | 0.0 | 0.00 | 0.03 | 0.00 | 60 | 1018.9 |
| 20260507020517 | 53 | 306 | 0.0 | 0.0 | 0.00 | 0.03 | 0.00 | 59 | 1018.8 |
| 20260507020011 | 54 | 306 | 0.0 | 0.0 | 0.00 | 0.03 | 0.00 | 58 | 1018.7 |
| 20260507015504 | 54 | 306 | 0.0 | 0.0 | 0.00 | 0.03 | 0.00 | 56 | 1018.7 |
| 20260507014959 | 55 | 306 | 0.0 | 0.0 | 0.00 | 0.03 | 0.00 | 57 | 1018.7 |
| 20260507014453 | 55 | 306 | 0.0 | 0.0 | 0.00 | 0.03 | 0.00 | 53 | 1018.5 |
| 20260507013951 | 56 | 306 | 0.0 | 0.0 | 0.00 | 0.03 | 0.00 | 51 | 1018.5 |
| 20260507013451 | 56 | 306 | 0.0 | 0.0 | 0.00 | 0.03 | 0.00 | 49 | 1018.5 |
| 20260507012951 | 56 | 306 | 0.0 | 0.0 | 0.00 | 0.03 | 0.00 | 45 | 1018.4 |
| 20260507012451 | 57 | 306 | 0.0 | 0.0 | 0.00 | 0.03 | 0.00 | 43 | 1018.5 |
| 20260507011950 | 57 | 306 | 0.0 | 0.0 | 0.00 | 0.03 | 0.00 | 42 | 1018.4 |
| 20260507011451 | 57 | 306 | 0.0 | 0.0 | 0.00 | 0.03 | 0.00 | 42 | 1018.4 |
| 20260507010950 | 58 | 306 | 0.0 | 1.0 | 0.00 | 0.03 | 0.00 | 42 | 1018.4 |
| 20260507010451 | 58 | 306 | 0.0 | 1.0 | 0.00 | 0.03 | 0.00 | 42 | 1018.5 |
| 20260507004950 | 58 | 306 | 0.0 | 2.0 | 0.00 | 0.03 | 0.00 | 41 | 1018.5 |
| 20260507004450 | 58 | 306 | 0.0 | 2.0 | 0.00 | 0.03 | 0.00 | 40 | 1018.4 |
| 20260507003951 | 58 | 306 | 0.0 | 2.0 | 0.00 | 0.03 | 0.00 | 40 | 1018.5 |
| 20260507003451 | 59 | 306 | 1.0 | 3.0 | 0.00 | 0.03 | 0.00 | 40 | 1018.3 |
| 20260507002950 | 59 | 311 | 1.0 | 3.0 | 0.00 | 0.03 | 0.00 | 40 | 1018.3 |
| 20260507002451 | 59 | 297 | 1.0 | 3.0 | 0.00 | 0.03 | 0.00 | 40 | 1018.3 |
| 20260507001948 | 59 | 297 | 1.0 | 3.0 | 0.00 | 0.03 | 0.00 | 40 | 1018.4 |
| 20260507000949 | 59 | 296 | 1.0 | 3.0 | 0.00 | 0.03 | 0.00 | 41 | 1018.3 |
| 20260507000450 | 59 | 230 | 1.0 | 3.0 | 0.00 | 0.03 | 0.00 | 39 | 1018.3 |
| 20260506235949 | 59 | 308 | 1.0 | 5.0 | 0.00 | 0.03 | 0.00 | 40 | 1018.4 |
| 20260506235449 | 59 | 248 | 2.0 | 8.0 | 0.00 | 0.03 | 0.00 | 38 | 1018.4 |
| 20260506234953 | 59 | 296 | 1.0 | 8.0 | 0.00 | 0.03 | 0.00 | 39 | 1018.4 |
| 20260506234448 | 59 | 0 | 1.0 | 4.0 | 0.00 | 0.03 | 0.00 | 39 | 1018.4 |
| 20260506233945 | 59 | 5 | 1.0 | 4.0 | 0.00 | 0.03 | 0.00 | 39 | 1018.4 |
| 20260506233445 | 60 | 325 | 1.0 | 4.0 | 0.00 | 0.03 | 0.00 | 37 | 1018.5 |
| 20260506232944 | 60 | 321 | 1.0 | 4.0 | 0.00 | 0.03 | 0.00 | 39 | 1018.5 |
| 20260506232441 | 60 | 300 | 1.0 | 5.0 | 0.00 | 0.03 | 0.00 | 39 | 1018.5 |
| 20260506231939 | 59 | 202 | 1.0 | 5.0 | 0.00 | 0.03 | 0.00 | 37 | 1018.6 |
| 20260506230939 | 60 | 40 | 1.0 | 2.0 | 0.00 | 0.03 | 0.00 | 36 | 1018.6 |
| 20260506230436 | 60 | 296 | 1.0 | 3.0 | 0.00 | 0.03 | 0.00 | 37 | 1018.6 |
| 20260506225935 | 60 | 321 | 1.0 | 3.0 | 0.00 | 0.03 | 0.00 | 37 | 1018.7 |
| 20260506225434 | 60 | 327 | 1.0 | 4.0 | 0.00 | 0.03 | 0.00 | 38 | 1018.8 |
| 20260506224934 | 60 | 340 | 1.0 | 4.0 | 0.00 | 0.03 | 0.00 | 38 | 1018.6 |
| 20260506224429 | 60 | 298 | 1.0 | 3.0 | 0.00 | 0.03 | 0.00 | 40 | 1018.6 |
| 20260506223922 | 60 | 51 | 2.0 | 7.0 | 0.00 | 0.03 | 0.00 | 41 | 1018.6 |
| 20260506223416 | 60 | 298 | 3.0 | 9.0 | 0.00 | 0.03 | 0.00 | 38 | 1018.7 |
| 20260506222910 | 60 | 304 | 3.0 | 9.0 | 0.00 | 0.03 | 0.00 | 38 | 1018.7 |
| 20260506221859 | 60 | 318 | 1.0 | 4.0 | 0.00 | 0.03 | 0.00 | 40 | 1018.6 |
| 20260506221352 | 60 | 296 | 1.0 | 4.0 | 0.00 | 0.03 | 0.00 | 41 | 1018.6 |
| 20260506220847 | 61 | 69 | 2.0 | 7.0 | 0.00 | 0.03 | 0.00 | 37 | 1018.6 |
| 20260506220340 | 61 | 302 | 2.0 | 7.0 | 0.00 | 0.03 | 0.00 | 37 | 1018.7 |
| 20260506215835 | 61 | 351 | 1.0 | 7.0 | 0.00 | 0.03 | 0.00 | 37 | 1018.7 |
| 20260506215332 | 60 | 304 | 2.0 | 8.0 | 0.00 | 0.03 | 0.00 | 36 | 1018.7 |
| 20260506214822 | 61 | 301 | 3.0 | 8.0 | 0.00 | 0.03 | 0.00 | 36 | 1018.8 |
| 20260506214316 | 61 | 351 | 2.0 | 6.0 | 0.00 | 0.03 | 0.00 | 38 | 1018.8 |
| 20260506213811 | 62 | 313 | 2.0 | 9.0 | 0.00 | 0.03 | 0.00 | 36 | 1018.8 |
| 20260506213304 | 62 | 70 | 2.0 | 9.0 | 0.00 | 0.03 | 0.00 | 39 | 1018.9 |
| 20260506212758 | 62 | 278 | 1.0 | 4.0 | 0.00 | 0.03 | 0.00 | 38 | 1018.9 |
| 20260506212252 | 62 | 225 | 2.0 | 6.0 | 0.00 | 0.03 | 0.00 | 40 | 1019.0 |
| 20260506211239 | 61 | 5 | 3.0 | 10.0 | 0.00 | 0.03 | 0.00 | 37 | 1019.1 |
| 20260506210733 | 62 | 297 | 3.0 | 10.0 | 0.00 | 0.03 | 0.00 | 37 | 1019.2 |
| 20260506205722 | 62 | 268 | 3.0 | 11.0 | 0.00 | 0.03 | 0.00 | 41 | 1019.3 |
| 20260506205216 | 62 | 296 | 3.0 | 11.0 | 0.00 | 0.03 | 0.00 | 43 | 1019.4 |
| 20260506204204 | 62 | 345 | 2.0 | 7.0 | 0.00 | 0.03 | 0.00 | 37 | 1019.5 |
| 20260506203657 | 62 | 284 | 2.0 | 8.0 | 0.00 | 0.03 | 0.00 | 43 | 1019.4 |
| 20260506203152 | 61 | 309 | 3.0 | 8.0 | 0.00 | 0.03 | 0.00 | 37 | 1019.7 |
| 20260506202646 | 61 | 316 | 3.0 | 10.0 | 0.00 | 0.03 | 0.00 | 37 | 1019.9 |
| 20260506202140 | 62 | 321 | 2.0 | 10.0 | 0.00 | 0.03 | 0.00 | 40 | 1019.9 |
| 20260506201635 | 62 | 269 | 2.0 | 6.0 | 0.00 | 0.03 | 0.00 | 40 | 1020.0 |
| 20260506201127 | 61 | 304 | 2.0 | 5.0 | 0.00 | 0.03 | 0.00 | 41 | 1020.1 |
| 20260506200621 | 61 | 31 | 2.0 | 5.0 | 0.00 | 0.03 | 0.00 | 41 | 1020.2 |
| 20260506200116 | 61 | 277 | 2.0 | 4.0 | 0.00 | 0.03 | 0.00 | 44 | 1020.3 |
| 20260506195609 | 61 | 318 | 2.0 | 6.0 | 0.00 | 0.03 | 0.00 | 42 | 1020.3 |
| 20260506195104 | 61 | 269 | 2.0 | 9.0 | 0.00 | 0.03 | 0.00 | 38 | 1020.3 |
| 20260506194558 | 60 | 355 | 2.0 | 9.0 | 0.00 | 0.03 | 0.00 | 42 | 1020.2 |
| 20260506194053 | 60 | 296 | 2.0 | 6.0 | 0.00 | 0.03 | 0.00 | 45 | 1020.2 |
| 20260506193546 | 60 | 348 | 1.0 | 6.0 | 0.00 | 0.03 | 0.00 | 40 | 1020.2 |
| 20260506193041 | 59 | 326 | 2.0 | 7.0 | 0.00 | 0.03 | 0.00 | 45 | 1020.1 |
| 20260506192028 | 60 | 301 | 3.0 | 10.0 | 0.00 | 0.03 | 0.00 | 41 | 1020.1 |
| 20260506191522 | 60 | 284 | 2.0 | 10.0 | 0.00 | 0.03 | 0.00 | 41 | 1020.1 |
| 20260506191015 | 60 | 138 | 1.0 | 6.0 | 0.00 | 0.03 | 0.00 | 48 | 1020.1 |
| 20260506190005 | 60 | 192 | 2.0 | 6.0 | 0.00 | 0.03 | 0.00 | 41 | 1020.2 |
| 20260506185458 | 59 | 59 | 2.0 | 6.0 | 0.00 | 0.03 | 0.00 | 42 | 1020.2 |
| 20260506184952 | 59 | 326 | 3.0 | 12.0 | 0.00 | 0.03 | 0.00 | 41 | 1020.3 |
| 20260506184445 | 59 | 304 | 3.0 | 12.0 | 0.00 | 0.03 | 0.00 | 44 | 1020.4 |
| 20260506183939 | 59 | 306 | 3.0 | 9.0 | 0.00 | 0.03 | 0.00 | 43 | 1020.4 |
| 20260506183434 | 59 | 315 | 4.0 | 9.0 | 0.00 | 0.03 | 0.00 | 38 | 1020.4 |
| 20260506182422 | 59 | 312 | 3.0 | 10.0 | 0.00 | 0.03 | 0.00 | 45 | 1020.3 |
| 20260506181916 | 59 | 92 | 3.0 | 9.0 | 0.00 | 0.03 | 0.00 | 41 | 1020.4 |
| 20260506181410 | 59 | 283 | 2.0 | 8.0 | 0.00 | 0.03 | 0.00 | 44 | 1020.5 |
| 20260506180359 | 60 | 287 | 2.0 | 4.0 | 0.00 | 0.03 | 0.00 | 50 | 1020.6 |
| 20260506175345 | 59 | 279 | 2.0 | 6.0 | 0.00 | 0.03 | 0.00 | 45 | 1020.7 |
| 20260506174340 | 58 | 37 | 2.0 | 7.0 | 0.00 | 0.03 | 0.00 | 48 | 1020.7 |
| 20260506173838 | 58 | 16 | 2.0 | 7.0 | 0.00 | 0.03 | 0.00 | 39 | 1020.7 |
| 20260506173338 | 59 | 340 | 2.0 | 7.0 | 0.00 | 0.03 | 0.00 | 44 | 1020.7 |
| 20260506172836 | 58 | 281 | 1.0 | 7.0 | 0.00 | 0.03 | 0.00 | 42 | 1020.8 |
| 20260506172337 | 58 | 52 | 2.0 | 7.0 | 0.00 | 0.03 | 0.00 | 43 | 1020.9 |
| 20260506171834 | 57 | 49 | 2.0 | 4.0 | 0.00 | 0.03 | 0.00 | 40 | 1020.7 |
| 20260506171334 | 58 | 322 | 2.0 | 5.0 | 0.00 | 0.03 | 0.00 | 43 | 1020.9 |
| 20260506170834 | 58 | 273 | 2.0 | 9.0 | 0.00 | 0.03 | 0.00 | 45 | 1021.0 |
| 20260506170334 | 57 | 302 | 2.0 | 9.0 | 0.00 | 0.03 | 0.00 | 46 | 1021.0 |
| 20260506165834 | 56 | 284 | 1.0 | 4.0 | 0.00 | 0.03 | 0.00 | 46 | 1021.0 |
| 20260506165330 | 56 | 286 | 2.0 | 7.0 | 0.00 | 0.03 | 0.00 | 46 | 1021.0 |
| 20260506164831 | 56 | 306 | 2.0 | 7.0 | 0.00 | 0.04 | 0.00 | 43 | 1021.0 |
| 20260506164331 | 56 | 300 | 2.0 | 7.0 | 0.00 | 0.04 | 0.00 | 47 | 1021.0 |
| 20260506163830 | 56 | 300 | 2.0 | 5.0 | 0.00 | 0.04 | 0.00 | 46 | 1021.1 |
| 20260506162829 | 56 | 283 | 2.0 | 8.0 | 0.00 | 0.04 | 0.00 | 49 | 1021.0 |
| 20260506162329 | 56 | 329 | 2.0 | 7.0 | 0.00 | 0.04 | 0.00 | 48 | 1021.1 |
| 20260506161830 | 56 | 310 | 2.0 | 7.0 | 0.00 | 0.04 | 0.00 | 48 | 1021.0 |
| 20260506161330 | 56 | 294 | 3.0 | 7.0 | 0.00 | 0.04 | 0.00 | 48 | 1021.0 |
| 20260506160325 | 56 | 300 | 1.0 | 5.0 | 0.00 | 0.04 | 0.00 | 56 | 1020.7 |
| 20260506155826 | 55 | 311 | 1.0 | 5.0 | 0.00 | 0.04 | 0.00 | 53 | 1020.6 |
| 20260506154826 | 56 | 298 | 2.0 | 6.0 | 0.00 | 0.04 | 0.00 | 53 | 1020.7 |
| 20260506154323 | 56 | 321 | 2.0 | 8.0 | 0.00 | 0.05 | 0.00 | 54 | 1020.6 |
| 20260506153821 | 56 | 310 | 3.0 | 8.0 | 0.00 | 0.05 | 0.00 | 53 | 1020.5 |
| 20260506152819 | 57 | 304 | 2.0 | 7.0 | 0.00 | 0.05 | 0.00 | 53 | 1020.5 |
| 20260506152319 | 57 | 304 | 2.0 | 10.0 | 0.00 | 0.05 | 0.00 | 54 | 1020.6 |
| 20260506151820 | 57 | 298 | 2.0 | 10.0 | 0.00 | 0.05 | 0.00 | 54 | 1020.6 |
| 20260506151319 | 57 | 305 | 2.0 | 8.0 | 0.00 | 0.05 | 0.00 | 59 | 1020.4 |
| 20260506150818 | 56 | 302 | 2.0 | 7.0 | 0.00 | 0.05 | 0.00 | 60 | 1020.3 |
| 20260506150318 | 56 | 275 | 2.0 | 8.0 | 0.00 | 0.05 | 0.00 | 57 | 1020.4 |
| 20260506145819 | 55 | 313 | 2.0 | 8.0 | 0.00 | 0.05 | 0.00 | 56 | 1020.4 |
| 20260506145313 | 55 | 306 | 2.0 | 8.0 | 0.00 | 0.05 | 0.00 | 64 | 1020.5 |
| 20260506144259 | 54 | 302 | 2.0 | 7.0 | 0.00 | 0.05 | 0.00 | 63 | 1020.5 |
| 20260506143755 | 54 | 297 | 3.0 | 8.0 | 0.00 | 0.05 | 0.00 | 66 | 1020.5 |
| 20260506143247 | 53 | 279 | 2.0 | 8.0 | 0.00 | 0.05 | 0.00 | 67 | 1020.5 |
| 20260506142738 | 53 | 267 | 1.0 | 5.0 | 0.00 | 0.05 | 0.00 | 71 | 1020.5 |
| 20260506141731 | 51 | 286 | 2.0 | 7.0 | 0.00 | 0.05 | 0.00 | 73 | 1020.5 |
| 20260506141225 | 51 | 294 | 2.0 | 6.0 | 0.00 | 0.05 | 0.00 | 73 | 1020.5 |
| 20260506140723 | 50 | 315 | 1.0 | 6.0 | 0.00 | 0.05 | 0.00 | 77 | 1020.6 |
| 20260506140223 | 50 | 279 | 1.0 | 3.0 | 0.00 | 0.05 | 0.00 | 78 | 1020.5 |
| 20260506135722 | 49 | 234 | 1.0 | 4.0 | 0.00 | 0.06 | 0.00 | 80 | 1020.5 |
| 20260506135216 | 49 | 234 | 1.0 | 6.0 | 0.00 | 0.06 | 0.00 | 80 | 1020.4 |
| 20260506134709 | 48 | 244 | 1.0 | 6.0 | 0.00 | 0.07 | 0.00 | 81 | 1020.3 |
| 20260506133658 | 47 | 227 | 1.0 | 3.0 | 0.00 | 0.09 | 0.00 | 83 | 1020.2 |
| 20260506133150 | 47 | 254 | 1.0 | 2.0 | 0.00 | 0.10 | 0.00 | 83 | 1020.1 |
| 20260506132645 | 47 | 5 | 0.0 | 3.0 | 0.00 | 0.10 | 0.00 | 83 | 1020.1 |
| 20260506132139 | 47 | 298 | 0.0 | 3.0 | 0.00 | 0.11 | 0.00 | 84 | 1020.2 |
| 20260506131634 | 46 | 299 | 0.0 | 1.0 | 0.00 | 0.11 | 0.00 | 84 | 1019.8 |
| 20260506130620 | 46 | 300 | 1.0 | 4.0 | 0.00 | 0.12 | 0.00 | 83 | 1019.4 |
| 20260506130115 | 46 | 288 | 0.0 | 3.0 | 0.00 | 0.12 | 0.00 | 84 | 1019.5 |
| 20260506125609 | 46 | 289 | 0.0 | 3.0 | 0.00 | 0.12 | 0.00 | 84 | 1019.5 |
| 20260506125103 | 45 | 289 | 0.0 | 2.0 | 0.00 | 0.12 | 0.00 | 85 | 1019.3 |
| 20260506124558 | 45 | 289 | 0.0 | 2.0 | 0.00 | 0.14 | 0.00 | 85 | 1019.1 |
| 20260506123544 | 44 | 289 | 0.0 | 0.0 | 0.00 | 0.15 | 0.00 | 86 | 1019.0 |
| 20260506123038 | 44 | 290 | 0.0 | 2.0 | 0.00 | 0.15 | 0.00 | 85 | 1018.9 |
| 20260506122532 | 44 | 290 | 0.0 | 2.0 | 0.00 | 0.15 | 0.00 | 85 | 1018.8 |
| 20260506122027 | 44 | 289 | 0.0 | 1.0 | 0.00 | 0.16 | 0.00 | 85 | 1018.6 |
| 20260506121522 | 44 | 289 | 0.0 | 0.0 | 0.00 | 0.18 | 0.00 | 84 | 1018.6 |
| 20260506121016 | 44 | 289 | 0.0 | 1.0 | 0.00 | 0.21 | 0.00 | 84 | 1018.7 |
| 20260506120508 | 44 | 289 | 0.0 | 1.0 | 0.00 | 0.26 | 0.00 | 83 | 1018.5 |
| 20260506120003 | 44 | 289 | 0.0 | 1.0 | 0.00 | 0.26 | 0.00 | 83 | 1018.3 |
| 20260506114951 | 44 | 289 | 0.0 | 1.0 | 0.00 | 0.26 | 0.00 | 82 | 1018.2 |
| 20260506114446 | 44 | 289 | 0.0 | 1.0 | 0.00 | 0.26 | 0.00 | 82 | 1018.1 |
| 20260506113940 | 44 | 289 | 0.0 | 0.0 | 0.00 | 0.26 | 0.00 | 82 | 1018.0 |
| 20260506113435 | 45 | 289 | 0.0 | 0.0 | 0.00 | 0.26 | 0.00 | 81 | 1017.8 |
| 20260506112928 | 45 | 289 | 0.0 | 0.0 | 0.00 | 0.26 | 0.00 | 80 | 1017.8 |
| 20260506112421 | 45 | 289 | 0.0 | 0.0 | 0.00 | 0.26 | 0.00 | 79 | 1017.6 |
| 20260506111914 | 45 | 289 | 0.0 | 0.0 | 0.00 | 0.27 | 0.00 | 79 | 1017.7 |
| 20260506111410 | 45 | 289 | 0.0 | 0.0 | 0.00 | 0.27 | 0.00 | 79 | 1017.6 |
| 20260506110357 | 46 | 289 | 0.0 | 1.0 | 0.00 | 0.28 | 0.00 | 78 | 1017.6 |
| 20260506105345 | 46 | 289 | 0.0 | 1.0 | 0.00 | 0.28 | 0.00 | 77 | 1017.9 |
| 20260506104839 | 46 | 292 | 0.0 | 2.0 | 0.00 | 0.30 | 0.00 | 77 | 1018.0 |
| 20260506104332 | 46 | 292 | 0.0 | 3.0 | 0.00 | 0.33 | 0.00 | 78 | 1018.1 |
| 20260506103333 | 46 | 5 | 1.0 | 4.0 | 0.00 | 0.33 | 0.00 | 78 | 1018.4 |
| 20260506102835 | 46 | 355 | 0.0 | 3.0 | 0.00 | 0.33 | 0.00 | 79 | 1018.4 |
| 20260506102331 | 46 | 327 | 0.0 | 4.0 | 0.00 | 0.33 | 0.00 | 79 | 1018.6 |
| 20260506101829 | 46 | 69 | 1.0 | 7.0 | 0.00 | 0.33 | 0.00 | 80 | 1018.5 |
| 20260506101329 | 46 | 5 | 1.0 | 7.0 | 0.00 | 0.33 | 0.00 | 81 | 1018.7 |
| 20260506100829 | 46 | 291 | 2.0 | 5.0 | 0.00 | 0.33 | 0.00 | 81 | 1018.7 |
| 20260506100327 | 45 | 290 | 2.0 | 9.0 | 0.00 | 0.33 | 0.00 | 81 | 1018.7 |
| 20260506094323 | 46 | 229 | 1.0 | 5.0 | 0.00 | 0.33 | 0.00 | 88 | 1018.6 |
| 20260506093823 | 46 | 282 | 1.0 | 5.0 | 0.00 | 0.33 | 0.00 | 89 | 1018.6 |
| 20260506092823 | 46 | 287 | 0.0 | 4.0 | 0.00 | 0.33 | 0.00 | 88 | 1018.2 |
| 20260506092323 | 46 | 297 | 1.0 | 4.0 | 0.00 | 0.33 | 0.00 | 88 | 1018.4 |
| 20260506091825 | 46 | 281 | 1.0 | 4.0 | 0.00 | 0.33 | 0.00 | 88 | 1017.9 |
| 20260506091324 | 46 | 301 | 1.0 | 4.0 | 0.00 | 0.33 | 0.00 | 88 | 1017.6 |
| 20260506090322 | 46 | 144 | 0.0 | 4.0 | 0.00 | 0.33 | 0.00 | 87 | 1017.2 |
| 20260506085820 | 46 | 144 | 0.0 | 2.0 | 0.00 | 0.33 | 0.00 | 87 | 1016.9 |
| 20260506085320 | 46 | 144 | 1.0 | 2.0 | 0.00 | 0.33 | 0.00 | 87 | 1017.1 |
| 20260506084821 | 46 | 144 | 1.0 | 3.0 | 0.00 | 0.33 | 0.00 | 87 | 1017.2 |
| 20260506084320 | 46 | 144 | 0.0 | 3.0 | 0.00 | 0.33 | 0.00 | 86 | 1017.2 |
| 20260506083821 | 46 | 144 | 0.0 | 1.0 | 0.00 | 0.33 | 0.00 | 86 | 1017.2 |
| 20260506083320 | 46 | 144 | 0.0 | 1.0 | 0.00 | 0.33 | 0.00 | 86 | 1017.3 |
| 20260506082820 | 46 | 144 | 0.0 | 1.0 | 0.00 | 0.33 | 0.00 | 86 | 1017.1 |
| 20260506082320 | 46 | 144 | 0.0 | 1.0 | 0.00 | 0.33 | 0.00 | 86 | 1017.2 |
| 20260506081822 | 46 | 144 | 0.0 | 1.0 | 0.00 | 0.33 | 0.00 | 85 | 1017.3 |
| 20260506081320 | 46 | 144 | 0.0 | 1.0 | 0.00 | 0.33 | 0.00 | 85 | 1017.3 |
| 20260506080820 | 46 | 144 | 0.0 | 0.0 | 0.00 | 0.33 | 0.00 | 85 | 1017.3 |
| 20260506080321 | 46 | 144 | 0.0 | 1.0 | 0.00 | 0.33 | 0.00 | 85 | 1017.4 |